Fayetteville, Georgia, United States (30214)
Lat: 33.45N, Lon: 84.45W
Wx Zone: GAZ054
Local Info
Past Weather Observations for Today

NOTE: This archive is for the closest National Weather Service station to Fayetteville. Information may differ from the station used for current weather conditions.

Click here for Long-term Archive

Time Weather Temperature Dewpoint Humidity Pressure Winds Precip Visibility
16:53
Fair
84°F / 29°C 72°F / 22°C 66% 30.01 in
(1016 mb)
W 10.4 mph
(W 17 kph)
0.00 in
(0.00 mm)
10SM
15:53
Partly Cloudy
90°F / 32°C 68°F / 20°C 49% 29.98 in
(1015 mb)
SSW 9.2 mph
(SSW 15 kph)
- 10SM
14:53
Mostly Cloudy
90°F / 32°C 68°F / 20°C 49% 30.01 in
(1016 mb)
SSW 10.4 mph
(SSW 17 kph)
- 10SM
13:53
Mostly Cloudy
88°F / 31°C 68°F / 20°C 52% 30.04 in
(1017 mb)
SSW 11.5 mph
(SSW 19 kph)
- 10SM
12:53
Mostly Cloudy
86°F / 30°C 70°F / 21°C 59% 30.04 in
(1017 mb)
SSW 11.5 mph
(SSW 19 kph)
- 10SM
11:53
Mostly Cloudy
84°F / 29°C 70°F / 21°C 62% 30.06 in
(1018 mb)
SSW 10.4 mph
(SSW 17 kph)
- 10SM
10:53
Overcast
82°F / 28°C 70°F / 21°C 66% 30.06 in
(1018 mb)
SSW 6.9 mph
(SSW 11 kph)
- 10SM
10:45
Overcast
82°F / 28°C 70°F / 21°C 66% 30.06 in
(1018 mb)
SSW 9.2 mph
(SSW 15 kph)
- 10SM
10:19
Mostly Cloudy
81°F / 27°C 70°F / 21°C 70% 30.06 in
(1018 mb)
SSW 8.1 mph
(SSW 13 kph)
- 10SM
09:53
Partly Cloudy
81°F / 27°C 70°F / 21°C 70% 30.06 in
(1018 mb)
SSW 8.1 mph
(SSW 13 kph)
- 10SM
08:53
Overcast
77°F / 25°C 70°F / 21°C 79% 30.06 in
(1018 mb)
W 12.7 mph
(W 20 kph)
- 10SM
08:42
Overcast
77°F / 25°C 70°F / 21°C 79% 30.06 in
(1018 mb)
SSW 6.9 mph
(SSW 11 kph)
- 10SM
07:53
Overcast
75°F / 24°C 70°F / 21°C 83% 30.06 in
(1018 mb)
W 6.9 mph
(W 11 kph)
- 10SM
07:39
Mostly Cloudy
75°F / 24°C 70°F / 21°C 83% 30.06 in
(1018 mb)
SSW 5.8 mph
(SSW 9 kph)
- 10SM
06:53
Clear
73°F / 23°C 70°F / 21°C 89% 30.06 in
(1018 mb)
SSW 3.5 mph
(SSW 6 kph)
- 10SM
05:53
Clear
72°F / 22°C 70°F / 21°C 94% 30.06 in
(1018 mb)
Calm - 10SM
04:53
Clear
73°F / 23°C 70°F / 21°C 89% 30.06 in
(1018 mb)
Calm - 10SM
03:53
Clear
73°F / 23°C 70°F / 21°C 89% 30.06 in
(1018 mb)
Variable 3.5 mph
(Variable 6 kph)
- 10SM
02:53
Clear
73°F / 23°C 70°F / 21°C 89% 30.06 in
(1018 mb)
Calm - 10SM
01:53
Clear
73°F / 23°C 70°F / 21°C 89% 30.06 in
(1018 mb)
Calm - 10SM
00:53
Clear
73°F / 23°C 70°F / 21°C 89% 30.06 in
(1018 mb)
Calm - 10SM
Time Weather Temperature Dewpoint Humidity Pressure Winds Precip Visibility


Weather for websites

WeatherForYou.com, LLC is not responsible for any damages or problems caused by this service. Current weather conditions are obtained from the closest station including government and personal stations which may have varying degrees of accuracy. Weather forecasts are derived from the NOAA NDFD. Like all things, this site belongs to Jesus Christ... He just trusts us to maintain it. If you have any questions or comments email webmaster@weatherforyou.com

Copyright © 2016, WeatherForYou.com LLC. All rights reserved.